EW8926 Weather Reports


Display with metric or nautical units.
time (UTC)temp
F
wind
direction
speed
MPH
gust
MPH
rain 1hr
in
rain 24hr
in
rain mn
in
humidity
%
barometer
mb
20260831002104 70 144 0.0 0.0 0.00 0.00 0.00 77 1016.0
20260831001604 70 144 0.0 0.0 0.00 0.00 0.00 77 1016.0
20260831001104 71 144 0.0 0.0 0.00 0.00 0.00 77 1016.0
20260831000604 71 144 0.0 0.0 0.00 0.00 0.00 77 1016.0
20260831000104 71 144 0.0 0.0 0.00 0.00 0.00 76 1016.0
20260830235604 71 144 0.0 0.0 0.00 0.00 0.00 76 1016.0
20260830234603 72 144 1.0 0.0 0.00 0.00 0.00 76 1016.1
20260830233604 72 144 0.0 5.0 0.00 0.00 0.00 76 1016.1
20260830233104 73 305 2.0 2.0 0.00 0.00 0.00 77 1016.1
20260830232604 73 305 2.0 1.0 0.00 0.00 0.00 77 1016.1
20260830232104 73 305 2.0 2.0 0.00 0.00 0.00 77 1016.1
20260830231604 73 311 2.0 5.0 0.00 0.00 0.00 77 1016.1
20260830231103 73 291 2.0 3.0 0.00 0.00 0.00 77 1016.1
20260830225604 73 300 2.0 3.0 0.00 0.00 0.00 77 1016.2
20260830225104 73 300 2.0 3.0 0.00 0.00 0.00 76 1016.2
20260830223603 73 342 0.0 3.0 0.00 0.00 0.00 75 1016.2
20260830223104 73 352 0.0 2.0 0.00 0.00 0.00 74 1016.2
20260830222604 73 352 0.0 2.0 0.00 0.00 0.00 74 1016.2
20260830222104 73 352 1.0 2.0 0.00 0.00 0.00 74 1016.2
20260830221604 73 352 1.0 2.0 0.00 0.00 0.00 74 1016.2
20260830221105 73 352 2.0 2.0 0.00 0.00 0.00 74 1016.2
20260830220605 73 352 2.0 3.0 0.00 0.00 0.00 74 1016.1
20260830220104 74 352 1.0 2.0 0.00 0.00 0.00 74 1016.1
20260830215604 74 353 1.0 1.0 0.00 0.00 0.00 73 1016.1
20260830215104 74 353 1.0 1.0 0.00 0.00 0.00 73 1016.0
20260830214604 74 353 1.0 3.0 0.00 0.00 0.00 73 1016.0
20260830214104 74 338 1.0 3.0 0.00 0.00 0.00 74 1016.0
20260830213604 74 324 1.0 2.0 0.00 0.00 0.00 74 1016.0
20260830212604 74 312 0.0 2.0 0.00 0.00 0.00 73 1016.0
20260830212104 73 311 1.0 2.0 0.00 0.00 0.00 73 1016.0
20260830211605 74 310 1.0 2.0 0.00 0.00 0.00 73 1016.0
20260830211104 74 310 1.0 2.0 0.00 0.00 0.00 73 1016.0
20260830210604 74 310 1.0 2.0 0.00 0.00 0.00 73 1015.9
20260830210105 74 310 1.0 2.0 0.00 0.00 0.00 73 1015.9
20260830205604 74 310 1.0 2.0 0.00 0.00 0.00 72 1015.9
20260830205104 74 310 0.0 2.0 0.00 0.00 0.00 71 1015.9
20260830204104 75 310 1.0 0.0 0.00 0.00 0.00 70 1015.9
20260830203104 75 310 1.0 2.0 0.00 0.00 0.00 70 1015.9
20260830202604 75 310 1.0 2.0 0.00 0.00 0.00 70 1015.9
20260830202104 76 310 0.0 2.0 0.00 0.00 0.00 69 1015.9
20260830201604 76 310 0.0 2.0 0.00 0.00 0.00 68 1015.9
20260830201103 76 310 0.0 2.0 0.00 0.00 0.00 68 1015.9
20260830200604 76 310 0.0 0.0 0.00 0.00 0.00 68 1015.8
20260830200104 76 310 0.0 2.0 0.00 0.00 0.00 68 1015.8
20260830195604 76 310 0.0 2.0 0.00 0.00 0.00 68 1015.8
20260830195104 76 310 0.0 2.0 0.00 0.00 0.00 67 1015.7
20260830194604 76 310 0.0 0.0 0.00 0.00 0.00 67 1015.7
20260830194103 77 310 0.0 2.0 0.00 0.00 0.00 67 1015.7
20260830193603 77 310 0.0 1.0 0.00 0.00 0.00 66 1015.7
20260830193104 77 310 0.0 0.0 0.00 0.00 0.00 66 1015.7
20260830192604 77 310 0.0 0.0 0.00 0.00 0.00 65 1015.7
20260830191604 78 310 0.0 1.0 0.00 0.00 0.00 64 1015.5
20260830191104 78 310 1.0 3.0 0.00 0.00 0.00 63 1015.5
20260830190104 79 310 2.0 2.0 0.00 0.00 0.00 62 1015.3
20260830185604 79 311 2.0 3.0 0.00 0.00 0.00 62 1015.3
20260830185104 79 306 2.0 3.0 0.00 0.00 0.00 61 1015.2
20260830184604 79 305 2.0 5.0 0.00 0.00 0.00 61 1015.2
20260830184104 80 313 2.0 5.0 0.00 0.00 0.00 60 1015.2
20260830183604 80 289 2.0 5.0 0.00 0.00 0.00 60 1015.1
20260830182604 81 310 2.0 5.0 0.00 0.00 0.00 59 1015.1
20260830182104 81 314 2.0 5.0 0.00 0.00 0.00 58 1014.9
20260830181604 82 311 2.0 5.0 0.00 0.00 0.00 58 1014.9
20260830180604 82 318 2.0 5.0 0.00 0.00 0.00 55 1014.7
20260830180104 83 306 2.0 5.0 0.00 0.00 0.00 55 1014.7
20260830175603 83 319 2.0 6.0 0.00 0.00 0.00 53 1014.7
20260830175104 84 307 2.0 5.0 0.00 0.00 0.00 53 1014.5
20260830174104 84 268 2.0 5.0 0.00 0.00 0.00 51 1014.5
20260830173603 85 265 2.0 5.0 0.00 0.00 0.00 51 1014.4
20260830172604 85 230 2.0 5.0 0.00 0.00 0.00 50 1014.4
20260830172104 85 246 2.0 6.0 0.00 0.00 0.00 49 1014.4
20260830171104 85 315 2.0 5.0 0.00 0.00 0.00 49 1014.4
20260830170604 86 201 2.0 6.0 0.00 0.00 0.00 49 1014.4
20260830170103 86 282 2.0 6.0 0.00 0.00 0.00 49 1014.4
20260830165604 86 272 2.0 5.0 0.00 0.00 0.00 49 1014.4
20260830165103 86 151 3.0 5.0 0.00 0.00 0.00 49 1014.3
20260830164604 86 264 3.0 6.0 0.00 0.00 0.00 48 1014.3
20260830164104 86 253 2.0 6.0 0.00 0.00 0.00 48 1014.3
20260830163104 87 127 2.0 5.0 0.00 0.00 0.00 48 1014.3
20260830162604 87 138 2.0 5.0 0.00 0.00 0.00 47 1014.3
20260830162104 87 212 2.0 8.0 0.00 0.00 0.00 48 1014.3
20260830160604 89 139 2.0 6.0 0.00 0.00 0.00 45 1014.3
20260830160104 90 149 2.0 7.0 0.00 0.00 0.00 44 1014.3
20260830155604 90 240 2.0 5.0 0.00 0.00 0.00 44 1014.3
20260830155104 90 241 2.0 6.0 0.00 0.00 0.00 43 1014.4
20260830154104 90 142 2.0 7.0 0.00 0.00 0.00 44 1014.4
20260830153104 90 256 2.0 7.0 0.00 0.00 0.00 42 1014.5
20260830152604 90 307 2.0 5.0 0.00 0.00 0.00 41 1014.5
20260830152104 90 313 2.0 6.0 0.00 0.00 0.00 42 1014.6
20260830151604 90 313 2.0 6.0 0.00 0.00 0.00 41 1014.6
20260830150603 90 303 2.0 5.0 0.00 0.00 0.00 41 1014.6
20260830150104 90 207 2.0 3.0 0.00 0.00 0.00 41 1014.6
20260830145604 90 130 2.0 5.0 0.00 0.00 0.00 40 1014.6
20260830145104 90 126 2.0 6.0 0.00 0.00 0.00 40 1014.7
20260830144604 90 285 2.0 6.0 0.00 0.00 0.00 40 1014.7
20260830144104 90 139 2.0 5.0 0.00 0.00 0.00 40 1014.7
20260830143604 90 7 2.0 2.0 0.00 0.00 0.00 40 1014.8
20260830143104 90 71 2.0 6.0 0.00 0.00 0.00 40 1014.8
20260830142603 90 314 2.0 6.0 0.00 0.00 0.00 41 1014.8
20260830142104 90 331 2.0 6.0 0.00 0.00 0.00 40 1014.9
20260830141604 90 280 2.0 3.0 0.00 0.00 0.00 40 1014.9
20260830141104 90 179 2.0 5.0 0.00 0.00 0.00 41 1014.9
20260830140104 89 342 2.0 5.0 0.00 0.00 0.00 40 1015.1
20260830135604 89 300 2.0 3.0 0.00 0.00 0.00 41 1015.1
20260830135103 89 8 2.0 7.0 0.00 0.00 0.00 41 1015.3
20260830134604 89 354 2.0 7.0 0.00 0.00 0.00 42 1015.3
20260830134104 89 31 2.0 5.0 0.00 0.00 0.00 41 1015.3
20260830133604 89 346 2.0 6.0 0.00 0.00 0.00 41 1015.4
20260830133104 89 320 2.0 6.0 0.00 0.00 0.00 40 1015.4
20260830132604 89 337 2.0 5.0 0.00 0.00 0.00 42 1015.4
20260830131604 88 155 2.0 3.0 0.00 0.00 0.00 42 1015.6
20260830130604 88 310 2.0 6.0 0.00 0.00 0.00 43 1015.8
20260830130104 88 309 2.0 7.0 0.00 0.00 0.00 42 1015.8
20260830125104 88 322 2.0 7.0 0.00 0.00 0.00 42 1015.9
20260830124604 88 359 2.0 5.0 0.00 0.00 0.00 43 1015.9
20260830124103 88 309 2.0 7.0 0.00 0.00 0.00 43 1015.9
20260830123604 87 28 2.0 6.0 0.00 0.00 0.00 43 1015.9
20260830123104 87 215 2.0 5.0 0.00 0.00 0.00 43 1015.9
20260830122604 87 305 2.0 5.0 0.00 0.00 0.00 44 1015.9
20260830121604 87 316 2.0 9.0 0.00 0.00 0.00 45 1016.0
20260830121104 87 294 2.0 5.0 0.00 0.00 0.00 45 1016.0
20260830120604 87 253 2.0 6.0 0.00 0.00 0.00 47 1016.2
20260830120104 86 316 2.0 5.0 0.00 0.00 0.00 46 1016.2
20260830115604 86 120 2.0 3.0 0.00 0.00 0.00 46 1016.2
20260830114604 86 206 2.0 6.0 0.00 0.00 0.00 46 1016.4
20260830114104 86 245 2.0 6.0 0.00 0.00 0.00 46 1016.4
20260830113604 86 256 2.0 6.0 0.00 0.00 0.00 46 1016.4
20260830112604 85 178 2.0 3.0 0.00 0.00 0.00 49 1016.4
20260830112104 85 338 2.0 5.0 0.00 0.00 0.00 48 1016.6
20260830111604 85 345 2.0 5.0 0.00 0.00 0.00 49 1016.6
20260830111105 85 4 2.0 5.0 0.00 0.00 0.00 49 1016.6
20260830110604 85 276 2.0 6.0 0.00 0.00 0.00 48 1016.7
20260830105604 84 133 2.0 5.0 0.00 0.00 0.00 50 1016.7
20260830105104 84 246 2.0 6.0 0.00 0.00 0.00 51 1016.8
20260830104604 84 124 2.0 5.0 0.00 0.00 0.00 53 1016.8
20260830103605 84 227 2.0 5.0 0.00 0.00 0.00 52 1017.0
20260830103104 83 276 2.0 5.0 0.00 0.00 0.00 50 1017.0
20260830102605 83 136 2.0 5.0 0.00 0.00 0.00 51 1017.0
20260830101603 83 164 2.0 6.0 0.00 0.00 0.00 52 1017.1
20260830100604 82 314 2.0 5.0 0.00 0.00 0.00 51 1017.2
20260830100105 82 314 2.0 5.0 0.00 0.00 0.00 51 1017.2
20260830095604 82 269 2.0 6.0 0.00 0.00 0.00 52 1017.2
20260830095104 82 135 2.0 5.0 0.00 0.00 0.00 54 1017.2
20260830094604 82 155 2.0 5.0 0.00 0.00 0.00 56 1017.2
20260830094103 82 322 2.0 5.0 0.00 0.00 0.00 56 1017.2
20260830093604 81 146 2.0 5.0 0.00 0.00 0.00 57 1017.3
20260830093104 81 135 2.0 7.0 0.00 0.00 0.00 56 1017.3
20260830092604 81 137 2.0 3.0 0.00 0.00 0.00 57 1017.3
20260830092104 81 137 2.0 5.0 0.00 0.00 0.00 56 1017.3
20260830091104 81 140 2.0 5.0 0.00 0.00 0.00 56 1017.3
20260830090604 81 156 2.0 5.0 0.00 0.00 0.00 56 1017.4
20260830090104 81 121 2.0 5.0 0.00 0.00 0.00 57 1017.4
20260830085104 80 120 2.0 5.0 0.00 0.00 0.00 56 1017.4
20260830084104 81 107 2.0 5.0 0.00 0.00 0.00 56 1017.4
20260830083604 80 140 2.0 3.0 0.00 0.00 0.00 53 1017.4
20260830082104 80 143 1.0 3.0 0.00 0.00 0.00 54 1017.3
20260830081604 80 229 1.0 3.0 0.00 0.00 0.00 53 1017.3
20260830081104 79 10 2.0 3.0 0.00 0.00 0.00 55 1017.3
20260830080604 79 136 2.0 3.0 0.00 0.00 0.00 56 1017.3
20260830080104 78 139 1.0 2.0 0.00 0.00 0.00 55 1017.3
20260830075604 78 139 1.0 5.0 0.00 0.00 0.00 55 1017.3
20260830075104 78 137 1.0 5.0 0.00 0.00 0.00 56 1017.3
20260830073603 77 264 2.0 2.0 0.00 0.00 0.00 56 1017.3
20260830073104 77 272 1.0 3.0 0.00 0.00 0.00 53 1017.3
20260830072604 77 320 1.0 3.0 0.00 0.00 0.00 53 1017.3
20260830072104 77 320 2.0 3.0 0.00 0.00 0.00 52 1017.2
20260830071604 76 318 2.0 2.0 0.00 0.00 0.00 52 1017.2
20260830071104 76 318 2.0 3.0 0.00 0.00 0.00 52 1017.2
20260830070604 75 316 2.0 5.0 0.00 0.00 0.00 53 1017.1
20260830070105 75 313 2.0 3.0 0.00 0.00 0.00 54 1017.1
20260830065604 74 313 2.0 5.0 0.00 0.00 0.00 54 1017.1
20260830065103 73 315 2.0 5.0 0.00 0.00 0.00 58 1017.0
20260830064604 72 329 2.0 2.0 0.00 0.00 0.00 60 1017.0
20260830064104 71 301 2.0 2.0 0.00 0.00 0.00 63 1017.0
20260830063604 70 301 2.0 5.0 0.00 0.00 0.00 64 1017.0
20260830063104 69 309 2.0 3.0 0.00 0.00 0.00 68 1017.0
20260830062604 68 307 2.0 5.0 0.00 0.00 0.00 69 1017.0
20260830062104 67 295 2.0 2.0 0.00 0.00 0.00 71 1017.0
20260830061604 67 296 2.0 3.0 0.00 0.00 0.00 72 1017.0
20260830061104 66 305 2.0 3.0 0.00 0.00 0.00 73 1017.0
20260830060604 65 347 2.0 3.0 0.00 0.00 0.00 74 1016.9
20260830060104 65 292 2.0 5.0 0.00 0.00 0.00 74 1016.9
20260830055604 65 306 2.0 3.0 0.00 0.00 0.00 75 1016.9
20260830055104 64 306 2.0 5.0 0.00 0.00 0.00 75 1016.8
20260830054604 64 308 2.0 5.0 0.00 0.00 0.00 76 1016.8
20260830053604 63 304 2.0 5.0 0.00 0.00 0.00 78 1016.7
20260830053103 63 316 2.0 5.0 0.00 0.00 0.00 79 1016.7
20260830052604 62 313 2.0 3.0 0.00 0.00 0.00 79 1016.7
20260830052104 62 314 2.0 5.0 0.00 0.00 0.00 79 1016.6
20260830051604 62 311 2.0 3.0 0.00 0.00 0.00 79 1016.6
20260830050604 62 312 2.0 3.0 0.00 0.00 0.00 79 1016.4
20260830050104 62 312 2.0 3.0 0.00 0.00 0.00 79 1016.4
20260830045604 62 312 2.0 3.0 0.00 0.00 0.00 79 1016.4
20260830045104 62 312 2.0 3.0 0.00 0.00 0.00 79 1016.3
20260830044104 62 312 2.0 2.0 0.00 0.00 0.00 78 1016.3
20260830043604 62 312 2.0 3.0 0.00 0.00 0.00 78 1016.3
20260830042604 62 312 2.0 3.0 0.00 0.00 0.00 78 1016.3
20260830041604 63 312 2.0 2.0 0.00 0.00 0.00 79 1016.1
20260830041104 63 312 2.0 2.0 0.00 0.00 0.00 78 1016.1
20260830040104 64 312 1.0 3.0 0.00 0.00 0.00 77 1016.1
20260830035604 64 254 1.0 3.0 0.00 0.00 0.00 76 1016.1
20260830035104 64 164 1.0 3.0 0.00 0.00 0.00 76 1016.1
20260830034604 65 165 1.0 3.0 0.00 0.00 0.00 75 1016.1
20260830033604 65 164 0.0 0.0 0.00 0.00 0.00 73 1016.0
20260830032604 66 164 0.0 0.0 0.00 0.00 0.00 72 1016.0
20260830032104 66 164 0.0 0.0 0.00 0.00 0.00 72 1015.8
20260830030605 66 164 0.0 2.0 0.00 0.00 0.00 71 1015.9
20260830030104 67 164 0.0 0.0 0.00 0.00 0.00 70 1015.9
20260830025604 67 164 0.0 0.0 0.00 0.00 0.00 69 1015.9
20260830025104 67 164 0.0 1.0 0.00 0.00 0.00 67 1015.7
20260830024604 68 164 0.0 0.0 0.00 0.00 0.00 66 1015.7
20260830024103 68 164 0.0 0.0 0.00 0.00 0.00 65 1015.7
20260830023603 68 164 0.0 0.0 0.00 0.00 0.00 64 1015.8
20260830023104 68 164 2.0 0.0 0.00 0.00 0.00 64 1015.8
20260830022604 69 164 2.0 0.0 0.00 0.00 0.00 63 1015.8
20260830022104 69 164 1.0 2.0 0.00 0.00 0.00 63 1015.8
20260830021604 68 164 0.0 5.0 0.00 0.00 0.00 64 1015.8
20260830020604 68 330 1.0 2.0 0.00 0.00 0.00 65 1015.8
20260830020104 69 330 1.0 3.0 0.00 0.00 0.00 65 1015.8
20260830015604 69 338 1.0 2.0 0.00 0.00 0.00 65 1015.8
20260830015104 69 350 1.0 2.0 0.00 0.00 0.00 66 1015.8
20260830014604 68 350 1.0 2.0 0.00 0.00 0.00 66 1015.8
20260830014104 68 349 1.0 2.0 0.00 0.00 0.00 66 1015.8
20260830013604 68 349 1.0 2.0 0.00 0.00 0.00 67 1015.9
20260830013103 68 350 0.0 3.0 0.00 0.00 0.00 68 1015.9
20260830012604 68 329 0.0 2.0 0.00 0.00 0.00 68 1015.9
20260830011605 67 329 1.0 2.0 0.00 0.00 0.00 70 1015.9
20260830010104 66 346 0.0 2.0 0.00 0.00 0.00 74 1015.9
20260830005604 66 346 0.0 2.0 0.00 0.00 0.00 75 1015.9
20260830005104 67 346 0.0 0.0 0.00 0.00 0.00 76 1016.0
20260830004604 67 346 0.0 0.0 0.00 0.00 0.00 75 1016.0
20260830004104 67 346 0.0 2.0 0.00 0.00 0.00 74 1016.0
20260830003604 67 346 0.0 0.0 0.00 0.00 0.00 73 1016.0
20260830003104 68 346 0.0 2.0 0.00 0.00 0.00 73 1016.0
20260830002604 68 346 0.0 0.0 0.00 0.00 0.00 73 1016.0